Regional Weather Roundup
Issued by NWS Midland/Odessa, TX

Skip options and go directly to product.
Home | Oldest Version | Next Version | Current Version | All | Text Only | Save Text | Print | Product List | Glossary On

Skip product version selection by date and time.   
624
ASUS44 KMAF 250801
RWRMAF
MIDLAND AREA WEATHER ROUNDUP
NATIONAL WEATHER SERVICE MIDLAND TX
200 AM CST SUN JAN 25 2015

...IN SOUTHWEST TEXAS AND SOUTHEAST NEW MEXICO...

CITY           SKY/WX    TMP DP  RH WIND       PRES   REMARKS
ALPINE         CLOUDY    45  20  36 SW20      30.18F WCI  37
ANDREWS        FAIR      40  28  62 W10       30.08S WCI  34
ARTESIA        CLEAR     32  28  86 N7        30.12S WCI  26
BIG SPRING     PTCLDY    38  32  77 S6        30.09S WCI  34
CARLSBAD       PTCLDY    46  17  31 NE3       30.09R
DRYDEN           N/A     47  29  49 W17       30.06F
FORT STOCKTON  MOCLDY    47  24  40 SW13      30.10R
GUAD PASS      NOT AVBL
HOBBS          PTCLDY    32  27  80 W5        30.11R WCI  27
MARFA          CLOUDY    30  23  74 S6        30.19S WCI  24
MIDLAND AIRPK  PTCLDY    45  27  49 W10       30.07S WCI  39
MIDLAND INTL   PTCLDY    41  27  57 W12       30.07S WCI  34
ODESSA         PTCLDY    42  25  50 W9        30.08S WCI  37
PECOS          MOCLDY    42  26  53 NW8       30.10S WCI  37
PRESIDIO       FAIR      41  31  67 N6        30.19F WCI  38
SEMINOLE       CLEAR     38  28  64 W10       30.10R WCI  32
SNYDER         PTCLDY   N/A N/A N/A SW9       30.05S
WINK           MOCLDY    34  25  69 N9        30.09R WCI  27
$$
...OTHER STATIONS IN TEXAS...

CITY           SKY/WX    TMP DP  RH WIND       PRES   REMARKS
ABILENE        CLEAR     40  33  76 SW8       30.02S WCI  34
AMARILLO       CLEAR     35  27  72 NW6       30.10R WCI  30
AUSTIN         PTCLDY    45  38  76 W8        30.05S
BROWNSVILLE    PTCLDY    47  45  93 S3        30.16F
CORPUS CHRISTI MOCLDY    44  38  79 SW9       30.12S WCI  39
DALLAS FTW     PTCLDY    41  34  76 SW9       29.94F WCI  35
DEL RIO        CLOUDY    41  37  86 CALM      30.09F
EL PASO        MOCLDY    37  28  70 NW3       30.20F
HOUSTON INT    PTCLDY    46  38  73 SW3       30.06F
LUBBOCK        PTCLDY    36  29  75 NW13      30.06S WCI  27
SAN ANGELO     PTCLDY    42  34  73 SW10      30.05F WCI  36
SAN ANTONIO    MOCLDY    47  39  74 CALM      30.07F
WACO           CLEAR     38  35  89 SW7       30.02S WCI  33
WICHITA FALLS  NOT AVBL
$$
...OTHER LOCATIONS IN NEW MEXICO...

CITY           SKY/WX    TMP DP  RH WIND       PRES   REMARKS
ALAMAGORDO     PTCLDY    30  23  74 CALM      30.22S
ALBUQUERQUE    PTCLDY    36  18  48 NE5       30.27R WCI  32
CANNON AFB     PTCLDY    33  25  72 N14       30.10R WCI  23
CLOVIS         PTCLDY    32  25  74 N13       30.11R WCI  22
HOLLOMAN AFB   PTCLDY    28  24  82 NW2       30.21R
ROSWELL        CLEAR     30  26  85 CALM      30.11R
RUIDOSO        PTCLDY    37  18  44 W17G26    30.21F WCI  28
SANTA FE       PTCLDY    28  18  66 NW6       30.24S WCI  22
TRUTH OR CONSE CLEAR     33  20  58 N8        30.22R WCI  26
TUCUMCARI      PTCLDY    25  22  88 S8        30.12R WCI  16
$$

USA.gov is the U.S. government's official web portal to all federal, state and local government web resources and services.